| time (UTC) | temp F | wind direction | speed MPH | gust MPH | rain 1hr in | rain 24hr in | rain mn in | humidity % | barometer mb |
| 20260503203031 | 62 | 217 | 10.0 | 19.0 | 0.00 | 0.00 | 0.00 | 24 | 1019.6 |
| 20260503201530 | 62 | 248 | 7.0 | 13.0 | 0.00 | 0.00 | 0.00 | 25 | 1019.7 |
| 20260503200034 | 60 | 223 | 8.0 | 18.0 | 0.00 | 0.00 | 0.00 | 29 | 1020.2 |
| 20260503194529 | 60 | 245 | 11.0 | 23.0 | 0.00 | 0.00 | 0.00 | 27 | 1020.2 |
| 20260503193042 | 61 | 236 | 9.0 | 18.0 | 0.00 | 0.00 | 0.00 | 27 | 1020.4 |
| 20260503191530 | 60 | 305 | 8.0 | 16.0 | 0.00 | 0.00 | 0.00 | 28 | 1020.6 |
| 20260503190034 | 59 | 242 | 3.0 | 12.0 | 0.00 | 0.00 | 0.00 | 29 | 1020.7 |
| 20260503184537 | 58 | 213 | 6.0 | 14.0 | 0.00 | 0.00 | 0.00 | 30 | 1021.0 |
| 20260503183035 | 59 | 232 | 5.0 | 12.0 | 0.00 | 0.00 | 0.00 | 31 | 1021.2 |
| 20260503181529 | 59 | 219 | 4.0 | 13.0 | 0.00 | 0.00 | 0.00 | 29 | 1021.2 |
| 20260503180040 | 59 | 213 | 7.0 | 12.0 | 0.00 | 0.00 | 0.00 | 30 | 1021.5 |
| 20260503174533 | 60 | 192 | 7.0 | 11.0 | 0.00 | 0.00 | 0.00 | 30 | 1021.7 |
| 20260503173042 | 60 | 173 | 7.0 | 19.0 | 0.00 | 0.00 | 0.00 | 30 | 1022.0 |
| 20260503171531 | 59 | 205 | 6.0 | 11.0 | 0.00 | 0.00 | 0.00 | 31 | 1022.3 |
| 20260503081530 | 37 | 67 | 5.0 | 8.0 | 0.00 | 0.00 | 0.00 | 54 | 1023.3 |
| 20260503071534 | 39 | 68 | 3.0 | 5.0 | 0.00 | 0.00 | 0.00 | 50 | 1023.7 |
| 20260503054536 | 40 | 73 | 5.0 | 8.0 | 0.00 | 0.00 | 0.00 | 49 | 1023.7 |
| 20260503053036 | 41 | 80 | 5.0 | 8.0 | 0.00 | 0.00 | 0.00 | 48 | 1023.7 |
| 20260503051531 | 41 | 79 | 5.0 | 9.0 | 0.00 | 0.00 | 0.00 | 48 | 1023.7 |
| 20260503050032 | 41 | 82 | 7.0 | 10.0 | 0.00 | 0.00 | 0.00 | 47 | 1023.6 |
| 20260503044530 | 42 | 69 | 6.0 | 11.0 | 0.00 | 0.00 | 0.00 | 47 | 1023.6 |
| 20260503043033 | 43 | 77 | 6.0 | 9.0 | 0.00 | 0.00 | 0.00 | 46 | 1023.4 |
| 20260503041532 | 44 | 79 | 5.0 | 8.0 | 0.00 | 0.00 | 0.00 | 44 | 1023.4 |
| 20260503040044 | 44 | 80 | 5.0 | 8.0 | 0.00 | 0.00 | 0.00 | 43 | 1023.4 |
| 20260503034543 | 45 | 71 | 6.0 | 8.0 | 0.00 | 0.00 | 0.00 | 43 | 1023.2 |
| 20260503033039 | 46 | 82 | 4.0 | 8.0 | 0.00 | 0.00 | 0.00 | 41 | 1023.1 |
| 20260503031538 | 49 | 81 | 3.0 | 4.0 | 0.00 | 0.00 | 0.00 | 36 | 1023.0 |
| 20260503030035 | 50 | 355 | 1.0 | 3.0 | 0.00 | 0.00 | 0.00 | 34 | 1022.9 |
| 20260503024529 | 51 | 309 | 1.0 | 5.0 | 0.00 | 0.00 | 0.00 | 34 | 1022.8 |
| 20260503023031 | 51 | 287 | 2.0 | 6.0 | 0.00 | 0.00 | 0.00 | 33 | 1022.5 |
| 20260503021539 | 52 | 286 | 4.0 | 9.0 | 0.00 | 0.00 | 0.00 | 32 | 1022.3 |
| 20260503020030 | 54 | 298 | 3.0 | 9.0 | 0.00 | 0.00 | 0.00 | 31 | 1021.9 |
| 20260503014529 | 56 | 285 | 4.0 | 10.0 | 0.00 | 0.00 | 0.00 | 30 | 1021.9 |
| 20260503013029 | 57 | 282 | 5.0 | 12.0 | 0.00 | 0.00 | 0.00 | 29 | 1021.9 |
| 20260503011534 | 59 | 271 | 8.0 | 13.0 | 0.00 | 0.00 | 0.00 | 29 | 1021.9 |
| 20260503010032 | 59 | 306 | 7.0 | 12.0 | 0.00 | 0.00 | 0.00 | 29 | 1021.8 |
| 20260503004530 | 59 | 287 | 8.0 | 14.0 | 0.00 | 0.00 | 0.00 | 28 | 1021.8 |
| 20260503003034 | 60 | 310 | 6.0 | 12.0 | 0.00 | 0.00 | 0.00 | 28 | 1021.9 |
| 20260503001530 | 61 | 268 | 7.0 | 15.0 | 0.00 | 0.00 | 0.00 | 26 | 1022.1 |
| 20260503000034 | 61 | 250 | 8.0 | 16.0 | 0.00 | 0.00 | 0.00 | 26 | 1022.3 |
| 20260502234529 | 62 | 309 | 7.0 | 15.0 | 0.00 | 0.00 | 0.00 | 27 | 1022.3 |
| 20260502233034 | 62 | 213 | 6.0 | 17.0 | 0.00 | 0.00 | 0.00 | 28 | 1022.3 |
| 20260502231532 | 62 | 321 | 7.0 | 15.0 | 0.00 | 0.00 | 0.00 | 27 | 1022.3 |
| 20260502230031 | 62 | 284 | 8.0 | 14.0 | 0.00 | 0.00 | 0.00 | 27 | 1022.3 |
| 20260502224530 | 61 | 160 | 4.0 | 15.0 | 0.00 | 0.00 | 0.00 | 26 | 1022.4 |
| 20260502223033 | 63 | 252 | 3.0 | 14.0 | 0.00 | 0.00 | 0.00 | 25 | 1022.4 |
| 20260502221529 | 62 | 246 | 6.0 | 12.0 | 0.00 | 0.00 | 0.00 | 27 | 1022.6 |
| 20260502220039 | 62 | 272 | 7.0 | 19.0 | 0.00 | 0.00 | 0.00 | 26 | 1022.9 |
| 20260502214537 | 61 | 292 | 8.0 | 17.0 | 0.00 | 0.00 | 0.00 | 26 | 1023.1 |
| 20260502213029 | 61 | 44 | 7.0 | 15.0 | 0.00 | 0.00 | 0.00 | 26 | 1023.2 |
| 20260502211543 | 62 | 236 | 9.0 | 18.0 | 0.00 | 0.00 | 0.00 | 25 | 1023.6 |
| 20260502210029 | 62 | 271 | 9.0 | 15.0 | 0.00 | 0.00 | 0.00 | 26 | 1023.7 |
| 20260502204530 | 60 | 348 | 2.0 | 15.0 | 0.00 | 0.00 | 0.00 | 27 | 1023.7 |